Time,TemperatureF,DewpointF,PressureIn,WindDirection,WindDirectionDegrees,WindSpeedMPH,WindSpeedGustMPH,Humidity,HourlyPrecipIn,Conditions,Clouds,dailyrainin,SoftwareType,DateUTC
2014-12-25 00:00:00,47.0,38.0,30.12,NNW,346,5.0,-999.0,72,-99.99,,,0.00,weatherlink.com 1.10,2014-12-25 08:00:00,
2014-12-25 00:15:00,46.9,38.0,30.12,North,355,8.0,-999.0,72,-99.99,,,0.00,weatherlink.com 1.10,2014-12-25 08:15:00,
2014-12-25 00:30:00,46.8,38.0,30.11,NE,53,18.0,-999.0,72,-99.99,,,0.00,weatherlink.com 1.10,2014-12-25 08:30:00,
2014-12-25 00:45:00,46.8,38.0,30.11,NE,55,4.0,-999.0,72,-99.99,,,0.00,weatherlink.com 1.10,2014-12-25 08:45:00,
2014-12-25 01:00:00,46.8,38.0,30.11,North,5,11.0,-999.0,72,-99.99,,,0.00,weatherlink.com 1.10,2014-12-25 09:00:00,
2014-12-25 01:15:00,46.6,38.0,30.10,NNE,23,3.0,-999.0,73,-99.99,,,0.00,weatherlink.com 1.10,2014-12-25 09:15:00,
2014-12-25 01:30:00,46.8,38.0,30.11,NE,38,7.0,-999.0,72,-99.99,,,0.00,weatherlink.com 1.10,2014-12-25 09:30:00,
2014-12-25 01:45:00,46.7,38.0,30.10,NW,317,11.0,-999.0,72,-99.99,,,0.00,weatherlink.com 1.10,2014-12-25 09:45:00,
2014-12-25 02:00:00,46.5,38.0,30.10,North,355,8.0,-999.0,73,-99.99,,,0.00,weatherlink.com 1.10,2014-12-25 10:00:00,
2014-12-25 02:15:00,46.4,38.0,30.12,NNE,24,6.0,-999.0,73,-99.99,,,0.00,weatherlink.com 1.10,2014-12-25 10:15:00,
2014-12-25 02:30:00,46.2,38.0,30.12,NE,46,7.0,-999.0,73,-99.99,,,0.00,weatherlink.com 1.10,2014-12-25 10:30:00,
2014-12-25 02:45:00,46.1,38.0,30.12,North,10,4.0,-999.0,74,-99.99,,,0.00,weatherlink.com 1.10,2014-12-25 10:45:00,
2014-12-25 03:00:00,45.9,38.0,30.12,NNE,28,4.0,-999.0,74,-99.99,,,0.00,weatherlink.com 1.10,2014-12-25 11:00:00,
2014-12-25 03:15:00,46.0,38.0,30.12,NNE,12,8.0,-999.0,74,-99.99,,,0.00,weatherlink.com 1.10,2014-12-25 11:15:00,
2014-12-25 03:30:00,45.8,38.0,30.12,NNE,31,9.0,-999.0,75,-99.99,,,0.00,weatherlink.com 1.10,2014-12-25 11:30:00,
2014-12-25 03:45:00,46.0,38.0,30.12,NE,50,4.0,-999.0,74,-99.99,,,0.00,weatherlink.com 1.10,2014-12-25 11:45:00,
2014-12-25 04:00:00,46.0,38.0,30.12,North,355,5.0,-999.0,74,-99.99,,,0.00,weatherlink.com 1.10,2014-12-25 12:00:00,
2014-12-25 04:15:00,45.9,38.0,30.12,North,5,3.0,-999.0,75,-99.99,,,0.00,weatherlink.com 1.10,2014-12-25 12:15:00,
2014-12-25 04:30:00,46.0,39.0,30.12,NNE,32,0.0,-999.0,75,-99.99,,,0.00,weatherlink.com 1.10,2014-12-25 12:30:00,
2014-12-25 04:45:00,45.7,38.0,30.11,ENE,70,4.0,-999.0,75,-99.99,,,0.00,weatherlink.com 1.10,2014-12-25 12:45:00,
2014-12-25 05:00:00,45.8,38.0,30.11,North,5,6.0,-999.0,75,-99.99,,,0.00,weatherlink.com 1.10,2014-12-25 13:00:00,
2014-12-25 05:15:00,45.6,38.0,30.11,NNW,340,12.0,-999.0,76,-99.99,,,0.00,weatherlink.com 1.10,2014-12-25 13:15:00,
2014-12-25 05:30:00,45.5,39.0,30.11,NNE,23,5.0,-999.0,77,-99.99,,,0.00,weatherlink.com 1.10,2014-12-25 13:30:00,
2014-12-25 05:45:00,45.6,39.0,30.11,ENE,64,4.0,-999.0,77,-99.99,,,0.00,weatherlink.com 1.10,2014-12-25 13:45:00,
2014-12-25 06:00:00,45.5,39.0,30.11,North,355,9.0,-999.0,78,-99.99,,,0.00,weatherlink.com 1.10,2014-12-25 14:00:00,
2014-12-25 06:15:00,45.5,39.0,30.12,North,5,5.0,-999.0,78,-99.99,,,0.00,weatherlink.com 1.10,2014-12-25 14:15:00,
2014-12-25 06:30:00,45.5,39.0,30.12,NNE,32,10.0,-999.0,78,-99.99,,,0.00,weatherlink.com 1.10,2014-12-25 14:30:00,